Location: Eimen
(51.8766°N, 9.7806°E)
Time: 02:39:06
(UTC+00:00)

Daily predictions for brighter satellites

Satellite Brightness Start Highest point End
(mag) Time Altitude Azimuth Time Altitude Azimuth Time Altitude Azimuth
Cosmos 2228 Rocket 3.0 00:05:20 32° S 00:07:22 90° WSW 00:11:55 10° N
Meteor 1-21 4.4 00:04:42 26° S 00:07:59 68° E 00:13:43 10° NNE
Helios 1A Rocket 2.8 00:07:43 28° SSE 00:09:40 75° ENE 00:13:32 10° NNW
Cosmos 2082 Rocket 2.4 00:07:01 27° S 00:10:06 60° ESE 00:15:44 10° NE
Cosmos 1833 Rocket 3.3 00:08:10 17° SW 00:12:27 52° NW 00:17:57 10° NNE
BREEZE-M DEB (TANK) 3.7 00:13:11 31° SSW 00:13:35 32° SSW 00:20:06 10° SE
Cosmos 724 4.3 00:12:02 22° SW 00:15:57 89° NW 00:21:49 10° NE
CZ-2D R/B 4.1 00:12:41 10° NE 00:16:46 21° E 00:20:48 10° SE
Cosmos 1908 Rocket 4.2 00:14:47 10° N 00:19:10 53° ENE 00:22:20 17° SSE
Cosmos 2360 Rocket 3.8 00:15:20 10° NNW 00:20:32 35° NE 00:25:42 10° ESE
USA 267 3.2 00:17:08 10° ENE 00:23:43 88° SSE 00:30:17 10° WSW
Cosmos 1140 Rocket 4.4 00:22:27 16° WSW 00:26:14 42° NW 00:31:13 10° NNE
Cosmos 1455 2.6 00:25:50 10° N 00:29:14 50° ENE 00:31:18 21° SE
Cosmos 1733 Rocket 3.5 00:25:56 10° NNW 00:30:04 45° W 00:31:54 28° SSW
Cosmos 841 Rocket 3.6 00:26:04 10° NNW 00:31:19 77° ENE 00:36:20 11° SSE
Resurs 1-4 Rocket 3.7 00:27:13 10° NE 00:31:40 27° E 00:36:00 10° SSE
Nimbus 7 Rocket 4.4 00:26:43 10° NNE 00:32:44 86° WNW 00:36:43 23° SSW
GP-B 4.4 00:29:06 10° NNW 00:32:53 29° WNW 00:35:02 19° WSW
Cosmos 1400 Rocket 3.3 00:32:16 27° SW 00:34:07 48° WNW 00:38:00 10° N
H-2A R/B 3.6 00:32:21 10° N 00:36:07 28° WNW 00:38:59 15° WSW
Cosmos 2278 3.7 00:34:54 10° NNW 00:40:39 89° WSW 00:46:23 10° SSE
NOSS 3-4 (A) 4.4 00:36:04 10° NW 00:42:19 37° WSW 00:47:10 19° S
NOSS 3-4 (C) 4.4 00:36:10 10° NW 00:42:26 37° WSW 00:47:19 19° S
Cosmos 1346 Rocket 3.2 00:40:01 10° NNW 00:43:44 44° W 00:45:17 28° SSW
Cosmos 676 Rocket 4.0 00:42:47 24° SSW 00:46:06 81° ESE 00:51:28 10° NNE
Cosmos 468 Rocket 4.4 00:41:50 10° NW 00:46:51 45° WSW 00:49:48 23° SSW
Cosmos 2251 Rocket 4.3 00:44:26 17° WSW 00:48:13 44° NW 00:53:18 10° NNE
Cosmos 407 Rocket 4.4 00:44:27 16° WSW 00:48:22 41° NW 00:53:21 10° NNE
SL-08 R/B 4.5 00:44:05 21° SSW 00:48:23 85° W 00:54:34 10° N
Okean 2 3.2 00:49:49 26° S 00:51:58 88° E 00:55:58 10° N
Cosmos 1954 Rocket 4.1 00:48:42 23° SSW 00:52:09 78° WNW 00:57:30 10° NNE
Cosmos 1745 Rocket 4.2 00:48:37 17° S 00:53:26 70° E 00:59:43 10° NNE
Cosmos 2333 Rocket 3.2 00:47:52 10° NNW 00:53:26 49° NE 00:58:59 10° SE
CZ-2C R/B 3.1 00:48:39 10° SSE 00:53:41 58° ENE 00:58:48 10° N
Meteor 1-4 Rocket 2.2 00:53:08 31° S 00:54:20 63° E 00:57:18 10° NNE
Cosmos 1190 Rocket 4.4 00:51:10 20° SW 00:54:45 59° WNW 01:00:01 10° NNE
Cosmos 2322 Rocket 2.6 00:52:44 10° NNW 00:58:23 68° NE 01:04:02 10° SE
Cosmos 1300 4.3 00:55:54 10° NW 00:58:24 18° W 00:59:22 16° WSW
USA 234 3.9 00:56:30 12° SSE 01:01:48 33° SW 01:07:36 10° WNW
Cosmos 1703 Rocket 3.6 00:58:54 21° S 01:01:48 81° E 01:06:16 10° NNE
Cosmos 1953 2.4 00:59:20 10° NNW 01:03:11 55° W 01:05:20 24° SSW
SL-8 R/B 4.4 01:00:52 10° W 01:05:00 29° SSW 01:09:08 10° SSE
NPP 4.0 01:00:49 10° NNE 01:06:10 60° ESE 01:10:34 15° S
Aureole 3 4.3 01:09:14 18° WSW 01:10:26 23° WNW 01:12:56 10° NNW
Cosmos 1980 Rocket 3.6 01:07:32 10° NW 01:11:41 21° W 01:14:01 16° SW
Nadezhda 1 Rocket 4.1 01:06:33 10° NNW 01:12:54 66° W 01:18:17 15° S
Cosmos 1242 Rocket 3.0 01:13:26 17° SSE 01:15:14 38° E 01:17:57 10° NNE
Cosmos 1300 Rocket 3.5 01:12:00 10° N 01:16:21 84° E 01:20:25 11° SSE
ADEOS II 3.1 01:13:58 10° NNE 01:18:56 41° E 01:23:52 10° SSE
MOZ.5/SAFIR/RUBIN 5/SL-8 4.3 01:18:21 18° SSW 01:21:29 43° W 01:26:00 10° NNW
Cosmos 1408 3.2 01:21:24 14° SSE 01:23:41 38° E 01:26:31 10° NNE
IDEFIX/ARIANE 42P 2.6 01:18:46 10° NNE 01:24:05 83° ESE 01:28:28 15° SSW
COSMOS 2406 3.7 01:19:32 15° SW 01:24:12 57° NW 01:29:54 10° NNE
Lacrosse 5 rocket 1.6 01:21:05 10° WNW 01:24:56 40° SW 01:28:38 10° SSE
Cosmos 839 Rocket 4.4 01:18:25 10° NW 01:26:08 80° NE 01:32:30 10° SE
ALOS 4.0 01:22:42 10° NE 01:26:39 27° E 01:30:33 10° SSE
EXPRESS MD2 4.2 01:27:55 18° S 01:29:11 24° SE 01:32:37 10° E
Okean 1-7 3.9 01:30:04 17° SW 01:32:57 36° WNW 01:36:58 10° N
ATLAS 2AS CENTAUR R/B 3.0 01:33:08 10° NW 01:40:05 71° NE 01:46:45 10° SE
Cosmos 1315 Rocket 3.4 01:39:37 16° SW 01:42:22 42° WNW 01:46:08 10° N
CZ-2C R/B 3.5 01:36:41 10° NNE 01:42:32 72° ESE 01:48:16 10° S
SL-16 R/B 2.6 01:37:19 10° NW 01:42:40 44° WSW 01:47:58 10° S
SJ 16-02 2.0 01:39:50 11° S 01:43:48 49° ESE 01:48:00 10° NNE
UNK 4.4 01:45:13 10° SSE 01:49:46 58° ENE 01:54:20 10° N
Cosmos 2333 4.3 01:44:04 10° NNW 01:49:50 88° ENE 01:55:36 10° SSE
Cosmos 1850 Rocket 4.1 01:46:14 14° SSW 01:50:51 76° WNW 01:56:09 10° NNE
Orbus 7S? 4.5 01:50:05 10° WNW 01:52:35 30° N 01:55:21 10° ENE
Cosmos 2082 Rocket 3.4 01:49:21 10° WSW 01:54:32 34° NW 01:59:44 10° NNE
Cosmos 1709 Rocket 4.2 01:49:42 12° SSW 01:55:36 66° WNW 02:01:59 10° N
Cosmos 1741 Rocket 4.1 01:51:18 13° SSW 01:55:58 74° WNW 02:01:16 10° NNE
Cosmos 2219 Rocket 2.5 01:50:22 10° NNW 01:56:03 75° ENE 02:01:43 10° SE
Cosmos 1782 Rocket 4.4 01:52:06 10° NNW 01:56:04 34° W 01:59:39 12° SSW
Cosmos 2181 Rocket 4.1 01:50:15 10° N 01:56:40 85° W 02:02:58 10° S
SL-16 R/B 2.6 01:50:51 10° SSE 01:57:07 83° WSW 02:03:27 10° NNW
CZ-2D R/B 2.3 01:51:52 10° NNE 01:57:22 75° WNW 02:02:42 10° SSW
Cosmos 1455 4.0 02:01:31 10° NW 02:03:18 14° W 02:05:03 10° WSW
AQUA 3.9 01:58:52 10° NNE 02:03:38 77° ESE 02:08:21 10° S
Cosmos 1703 3.1 02:00:07 10° S 02:03:52 87° ESE 02:07:37 10° NNE
Meteor 1-28 Rocket 3.1 02:00:39 10° S 02:04:12 63° WSW 02:07:45 10° NNW
COSMOS 2428 3.8 01:58:49 10° NNW 02:04:21 49° NE 02:09:50 10° SE
Cosmos 2360 Rocket 2.3 01:59:16 10° NW 02:04:49 57° WSW 02:10:21 10° S
USA 267 3.8 02:00:11 10° ENE 02:06:35 60° N 02:13:00 10° W
Cosmos 968 Rocket 3.5 02:02:10 11° SSW 02:07:04 80° WNW 02:12:14 10° NNE
Genesis I 3.2 02:05:37 12° SSW 02:08:49 60° SE 02:12:21 10° NE
RESURS DK-1 2.3 02:05:03 10° NW 02:09:05 61° WSW 02:13:05 10° SSE
Meteor 1-24 Rocket 4.0 02:03:45 10° S 02:09:47 82° E 02:15:48 10° NNE
MSX 4.1 02:04:39 10° N 02:10:16 56° WNW 02:15:50 10° SW
Resurs 1-4 Rocket 2.4 02:06:39 10° N 02:11:47 55° WNW 02:16:53 10° SW
SAR-Lupe-4 3.9 02:10:38 10° NNE 02:14:12 65° ESE 02:17:44 10° S
Cosmos 2237 Rocket 4.4 02:13:24 10° NNW 02:18:29 32° NE 02:23:32 10° ESE
FENGYUN 3A 3.7 02:15:53 10° NNE 02:21:16 73° WNW 02:26:37 10° SSW
IRAS Rocket 4.4 02:16:19 10° NNE 02:21:52 77° ESE 02:27:21 10° SSW
Geosat 4.0 02:27:02 10° SSE 02:32:03 75° WSW 02:37:06 10° NNW
CZ-2C R/B 3.7 02:30:10 10° SW 02:34:20 25° W 02:38:34 10° NW
Cosmos 2221 Rocket 3.8 02:30:22 10° S 02:34:54 80° E 02:39:28 10° NNE
ASTEX 1 4.2 02:30:57 10° SSE 02:35:45 56° ENE 02:40:34 10° N
Cosmos 2333 Rocket 2.8 02:32:25 10° NW 02:37:37 37° WSW 02:42:49 10° S
